Hourly Data Report for February 04, 2019

TORONTO CITY
ONTARIO
Current Station Operator: ECCC - MSC

43°40'00.000" N
79°24'00.000" W
112.50 m
6158355
71508
XTO

Download Data

Hourly Data (February 2019)
Hourly Data Report for February 4, 2019
TIME
LST
Temp Definition
°C
Dew Point Definition
°C
Rel Hum Definition
%
Precip. Amount Definition
mm

Wind Dir Definition
10's deg

Wind Spd Definition
km/h
Visibility Definition
km
Stn Press Definition
kPa
Hmdx Definition


Wind Chill Definition


Weather Definition


00:00 6.2 3.3 82 0.0 LegendMM LegendMM   99.85     LegendNANA
01:00 5.6 3.1 84 0.0 LegendMM LegendMM   99.88     LegendNANA
02:00 6.3 3.9 84 0.0 LegendMM LegendMM   99.87     LegendNANA
03:00 6.1 3.8 85 0.0 LegendMM LegendMM   99.88     LegendNANA
04:00 5.9 3.9 87 0.0 LegendMM LegendMM   99.87     LegendNANA
05:00 6.4 4.6 88 0.0 LegendMM LegendMM   99.91     LegendNANA
06:00 6.2 3.7 84 0.0 LegendMM LegendMM   99.92     LegendNANA
07:00 5.9 3.4 84 0.0 LegendMM LegendMM   99.91     LegendNANA
08:00 6.5 3.7 82 0.0 LegendMM LegendMM   99.95     LegendNANA
09:00 6.9 3.0 76 0.0 LegendMM LegendMM   99.95     LegendNANA
10:00 8.4 2.8 68 0.0 LegendMM LegendMM   99.92     LegendNANA
11:00 8.7 2.5 65 0.0 LegendMM LegendMM   99.88     LegendNANA
12:00 9.2 2.3 62 0.0 LegendMM LegendMM   99.82     LegendNANA
13:00 9.9 2.7 61 0.0 LegendMM LegendMM   99.73     LegendNANA
14:00 10.9 3.5 60 0.0 LegendMM LegendMM   99.62     LegendNANA
15:00 10.6 3.3 61 0.0 LegendMM LegendMM   99.56     LegendNANA
16:00 11.1 4.1 62 0.0 LegendMM LegendMM   99.48     LegendNANA
17:00 11.1 4.5 64 0.0 LegendMM LegendMM   99.38     LegendNANA
18:00 11.5 4.7 63 0.0 LegendMM LegendMM   99.31     LegendNANA
19:00 10.1 4.7 69 0.0 LegendMM LegendMM   99.26     LegendNANA
20:00 9.5 4.6 72 0.0 LegendMM LegendMM   99.22     LegendNANA
21:00 9.1 4.8 74 0.0 LegendMM LegendMM   99.17     LegendNANA
22:00 8.4 5.8 84 0.2 LegendMM LegendMM   99.18     LegendNANA
23:00 8.3 7.0 92 1.9 LegendMM LegendMM   99.15     LegendNANA

Notes on Data Quality.

Legend

  • E = Estimated
  • M = Missing
  • NA = Not Available*
  • [empty] = Indicates an unobserved value
Date modified: